• In United Kingdom
  • List of Countries
  • For 7 days
  • Water Temperature
  • Satellite Maps
  • Weather Map
  • Weather Widgets
  • user-avatar
    Login

    Hourly Weather Ibiza

    Today, 16 August, Thursday

    Time Temperature Precipitation Wind Pressure Humidity
    00:00 +28°C° 0 mm 4 mps 754 mmHg 61%
    01:00 +28°C° 0 mm 4 mps 753 mmHg 61%
    02:00 +27°C° 0 mm 4 mps 753 mmHg 62%
    03:00 +27°C° 0 mm 3 mps 753 mmHg 62%
    04:00 +27°C° 0 mm 3 mps 753 mmHg 62%
    05:00 +28°C° 0 mm 3 mps 753 mmHg 61%
    06:00 +28°C° 0 mm 3 mps 753 mmHg 61%
    07:00 +28°C° 0 mm 3 mps 753 mmHg 59%
    08:00 +29°C° 0 mm 3 mps 753 mmHg 57%
    09:00 +30°C° 0 mm 3 mps 754 mmHg 55%
    10:00 +30°C° 0 mm 3 mps 753 mmHg 55%
    11:00 +30°C° 0 mm 3 mps 753 mmHg 54%
    12:00 +31°C° 0 mm 3 mps 753 mmHg 54%
    13:00 +30°C° 0 mm 3 mps 753 mmHg 55%
    14:00 +30°C° 0 mm 3 mps 753 mmHg 56%
    15:00 +30°C° 0 mm 3 mps 752 mmHg 57%
    16:00 +30°C° 0 mm 3 mps 752 mmHg 59%
    17:00 +29°C° 0 mm 3 mps 752 mmHg 60%
    18:00 +29°C° 0 mm 3 mps 752 mmHg 62%
    19:00 +29°C° 0 mm 3 mps 752 mmHg 63%
    20:00 +28°C° 0 mm 3 mps 752 mmHg 63%
    21:00 +28°C° 0 mm 3 mps 753 mmHg 64%
    22:00 +28°C° 0 mm 3 mps 753 mmHg 63%
    23:00 +28°C° 0 mm 3 mps 753 mmHg 62%

    Tomorrow, 17 August, Friday

    Time Temperature Precipitation Wind Pressure Humidity
    00:00 +28°C° 0 mm 3 mps 753 mmHg 61%
    01:00 +27°C° 0.2 mm 2 mps 753 mmHg 61%
    02:00 +27°C° 0.2 mm 2 mps 753 mmHg 61%
    03:00 +27°C° 0.2 mm 2 mps 752 mmHg 60%
    04:00 +27°C° 0 mm 2 mps 753 mmHg 60%
    05:00 +27°C° 0 mm 2 mps 753 mmHg 60%
    06:00 +28°C° 0 mm 1 mps 753 mmHg 60%
    07:00 +28°C° 0.4 mm 1 mps 753 mmHg 58%
    08:00 +29°C° 0.4 mm 1 mps 754 mmHg 56%
    09:00 +30°C° 0.4 mm 1 mps 754 mmHg 53%
    10:00 +30°C° 0.7 mm 1 mps 754 mmHg 54%
    11:00 +30°C° 0.7 mm 1 mps 754 mmHg 55%
    12:00 +30°C° 0.7 mm 1 mps 755 mmHg 56%
    13:00 +30°C° 0 mm 1 mps 754 mmHg 56%
    14:00 +29°C° 0 mm 1 mps 754 mmHg 56%
    15:00 +29°C° 0 mm 2 mps 754 mmHg 56%
    16:00 +29°C° 0 mm 2 mps 754 mmHg 58%
    17:00 +29°C° 0 mm 2 mps 754 mmHg 59%
    18:00 +29°C° 0 mm 2 mps 754 mmHg 61%
    19:00 +28°C° 0 mm 2 mps 754 mmHg 62%
    20:00 +28°C° 0 mm 2 mps 755 mmHg 63%
    21:00 +28°C° 0 mm 2 mps 755 mmHg 64%
    22:00 +28°C° 0 mm 2 mps 755 mmHg 65%
    23:00 +28°C° 0 mm 2 mps 755 mmHg 65%

    Day after tomorrow, 18 August, Saturday

    Time Temperature Precipitation Wind Pressure Humidity
    00:00 +27°C° 0 mm 2 mps 755 mmHg 65%
    01:00 +27°C° 0.1 mm 2 mps 755 mmHg 66%
    02:00 +27°C° 0.1 mm 2 mps 755 mmHg 66%
    03:00 +27°C° 0.1 mm 2 mps 755 mmHg 66%
    04:00 +27°C° 0.2 mm 2 mps 755 mmHg 66%
    05:00 +27°C° 0.2 mm 2 mps 755 mmHg 67%
    06:00 +27°C° 0.2 mm 2 mps 755 mmHg 68%
    07:00 +28°C° 0 mm 3 mps 756 mmHg 65%
    08:00 +29°C° 0 mm 3 mps 756 mmHg 63%
    09:00 +29°C° 0 mm 4 mps 756 mmHg 60%
    10:00 +29°C° 0 mm 4 mps 756 mmHg 60%
    11:00 +30°C° 0 mm 4 mps 756 mmHg 59%
    12:00 +30°C° 0 mm 5 mps 756 mmHg 59%
    13:00 +30°C° 0 mm 5 mps 756 mmHg 58%
    14:00 +30°C° 0 mm 5 mps 756 mmHg 57%
    15:00 +30°C° 0 mm 5 mps 755 mmHg 56%
    16:00 +29°C° 0 mm 5 mps 755 mmHg 58%
    17:00 +29°C° 0 mm 5 mps 755 mmHg 60%
    18:00 +29°C° 0 mm 5 mps 755 mmHg 62%
    19:00 +28°C° 0 mm 5 mps 756 mmHg 63%
    20:00 +28°C° 0 mm 5 mps 756 mmHg 65%
    21:00 +28°C° 0 mm 5 mps 756 mmHg 66%
    22:00 +28°C° 0 mm 5 mps 756 mmHg 66%
    23:00 +28°C° 0 mm 5 mps 756 mmHg 66%

    19 August, Sunday

    Time Temperature Precipitation Wind Pressure Humidity
    00:00 +28°C° 0 mm 4 mps 756 mmHg 66%
    01:00 +28°C° 0 mm 4 mps 756 mmHg 66%
    02:00 +28°C° 0 mm 4 mps 756 mmHg 66%
    03:00 +27°C° 0 mm 4 mps 755 mmHg 66%
    04:00 +27°C° 0 mm 4 mps 756 mmHg 65%
    05:00 +28°C° 0 mm 4 mps 756 mmHg 65%
    06:00 +28°C° 0 mm 4 mps 756 mmHg 64%
    07:00 +28°C° 0 mm 4 mps 756 mmHg 61%
    08:00 +29°C° 0 mm 4 mps 756 mmHg 59%
    09:00 +29°C° 0 mm 3 mps 756 mmHg 56%
    10:00 +30°C° 0 mm 4 mps 756 mmHg 55%
    11:00 +30°C° 0 mm 4 mps 756 mmHg 54%
    12:00 +30°C° 0 mm 4 mps 756 mmHg 53%
    13:00 +30°C° 0 mm 4 mps 756 mmHg 52%
    14:00 +30°C° 0 mm 4 mps 756 mmHg 51%
    15:00 +30°C° 0 mm 4 mps 756 mmHg 49%
    16:00 +30°C° 0 mm 4 mps 756 mmHg 50%
    17:00 +29°C° 0 mm 4 mps 756 mmHg 51%
    18:00 +29°C° 0 mm 3 mps 756 mmHg 51%
    19:00 +29°C° 0 mm 3 mps 756 mmHg 54%
    20:00 +28°C° 0 mm 3 mps 756 mmHg 56%
    21:00 +28°C° 0 mm 3 mps 756 mmHg 59%
    22:00 +28°C° 0 mm 3 mps 756 mmHg 60%
    23:00 +28°C° 0 mm 3 mps 756 mmHg 61%

    20 August, Monday

    Time Temperature Precipitation Wind Pressure Humidity
    00:00 +28°C° 0 mm 3 mps 756 mmHg 62%
    01:00 +27°C° 0 mm 3 mps 756 mmHg 62%
    02:00 +27°C° 0 mm 2 mps 756 mmHg 62%
    03:00 +27°C° 0 mm 2 mps 756 mmHg 63%
    04:00 +27°C° 0 mm 2 mps 756 mmHg 63%
    05:00 +27°C° 0 mm 3 mps 756 mmHg 62%
    06:00 +28°C° 0 mm 3 mps 756 mmHg 62%
    07:00 +28°C° 0 mm 3 mps 756 mmHg 59%
    08:00 +29°C° 0 mm 3 mps 756 mmHg 56%
    09:00 +30°C° 0 mm 3 mps 756 mmHg 53%
    10:00 +30°C° 0 mm 3 mps 756 mmHg 53%
    11:00 +30°C° 0 mm 4 mps 756 mmHg 53%
    12:00 +32°C° 0 mm 4 mps 756 mmHg 53%
    13:00 +32°C° 0 mm 4 mps 756 mmHg 53%
    14:00 +32°C° 0 mm 4 mps 756 mmHg 53%
    15:00 +32°C° 0 mm 4 mps 755 mmHg 53%
    16:00 +30°C° 0 mm 3 mps 755 mmHg 55%
    17:00 +30°C° 0 mm 3 mps 755 mmHg 57%
    18:00 +29°C° 0 mm 3 mps 755 mmHg 59%
    19:00 +29°C° 0 mm 3 mps 755 mmHg 60%
    20:00 +29°C° 0 mm 3 mps 756 mmHg 62%
    21:00 +28°C° 0 mm 2 mps 756 mmHg 64%
    22:00 +28°C° 0 mm 2 mps 755 mmHg 64%
    23:00 +28°C° 0 mm 1 mps 755 mmHg 64%

    21 August, Tuesday

    Time Temperature Precipitation Wind Pressure Humidity
    00:00 +28°C° 0 mm 1 mps 755 mmHg 64%
    01:00 +28°C° 0 mm 1 mps 755 mmHg 64%
    02:00 +28°C° 0 mm 2 mps 755 mmHg 65%
    03:00 +28°C° 0 mm 2 mps 755 mmHg 65%
    04:00 +28°C° 0 mm 3 mps 755 mmHg 65%
    05:00 +28°C° 0 mm 3 mps 755 mmHg 64%
    06:00 +28°C° 0 mm 3 mps 755 mmHg 64%
    07:00 +29°C° 0 mm 4 mps 755 mmHg 61%
    08:00 +30°C° 0 mm 4 mps 755 mmHg 59%
    09:00 +30°C° 0 mm 4 mps 755 mmHg 56%
    10:00 +32°C° 0 mm 4 mps 755 mmHg 54%
    11:00 +31°C° 0 mm 3 mps 755 mmHg 51%
    12:00 +33°C° 0 mm 3 mps 755 mmHg 49%
    13:00 +33°C° 0 mm 3 mps 755 mmHg 49%
    14:00 +33°C° 0 mm 3 mps 754 mmHg 48%
    15:00 +33°C° 0 mm 3 mps 754 mmHg 48%
    16:00 +31°C° 0 mm 3 mps 754 mmHg 51%
    17:00 +31°C° 0 mm 3 mps 754 mmHg 54%
    18:00 +30°C° 0 mm 3 mps 754 mmHg 57%
    19:00 +30°C° 0 mm 2 mps 754 mmHg 60%
    20:00 +29°C° 0 mm 2 mps 754 mmHg 64%
    21:00 +28°C° 0 mm 2 mps 754 mmHg 68%
    22:00 +28°C° 0 mm 2 mps 754 mmHg 69%
    23:00 +28°C° 0 mm 2 mps 754 mmHg 69%
    Show more